Location: Taylor Dark Sky Site
(39.1017°N, 87.9564°W)
Time: 02:56:18
(UTC-05:00)

Amateur Radio Satellites - All Passes

Search period start: 19 April 2015 02:26
Search period end: 20 April 2015 02:26
Location: Taylor Dark Sky Site, 39.1017°N, 87.9564°W

Satellite Date Start Highest point End Downlink Frequencies (MHz)
Time Altitude Azimuth
STARS 19 Apr 02:42:07 02:46:10 39° 72° (ENE) 02:50:18 437.465
RS-15 19 Apr 02:44:25 02:54:41 36° 252° (WSW) 03:04:58 29.354- 29.394
BEESAT 19 Apr 02:45:13 02:49:02 23° 267° (W) 02:52:44 436.000
SWISSCUBE 19 Apr 02:46:41 02:50:17 20° 267° (W) 02:53:45 437.505
PHONESAT 2.4 19 Apr 02:53:23 02:55:46 17° 213° (SSW) 02:58:04 2401.200-2431.200
Cosmos 2504 19 Apr 03:03:08 03:10:11 32° 275° (W) 03:16:38 435.465 / 435.565
KKS-1 19 Apr 03:05:09 03:09:34 70° 259° (W) 03:13:59 437.445
CUSAT 1 19 Apr 03:21:33 03:22:25 10° 61° (ENE) 03:23:55 437.405
Oscar 19 19 Apr 03:30:47 03:35:04 26° 293° (WNW) 03:39:14 437.125/150
Gurwin Techsat 1B 19 Apr 03:33:17 03:38:38 88° 291° (WNW) 03:43:57 435.225
AO-7 19 Apr 03:36:01 03:41:24 19° 90° (E) 03:47:13 29.400- 29.500
HORYU 2 19 Apr 03:41:06 03:44:30 22° 93° (E) 03:48:01 437.375
GONETS M04 19 Apr 03:47:08 03:55:03 36° 71° (ENE) 04:03:04
ITAMSAT 1 19 Apr 03:47:57 03:53:01 55° 288° (WNW) 03:58:03 435.822/435.867
JAS-2 19 Apr 04:03:54 04:09:19 27° 90° (E) 04:14:22 435.910
MOZHAYETS 4 19 Apr 04:14:11 04:18:28 38° 72° (ENE) 04:22:48
STARS 19 Apr 04:19:54 04:22:51 17° 268° (W) 04:25:39 437.465
AUBIESAT-1 19 Apr 04:34:06 04:36:11 13° 58° (ENE) 04:38:32 437.475
BEESAT 2 19 Apr 04:46:18 04:50:22 68° 119° (ESE) 04:54:31 435.950
DANDE 19 Apr 04:50:05 04:56:20 41° 75° (ENE) 05:03:58 436.750
BEESAT 3 19 Apr 04:54:35 04:58:40 80° 301° (WNW) 05:02:49 437.485
CUSAT 1 19 Apr 04:59:29 05:06:21 60° 78° (ENE) 05:14:26 437.405
AIST 2 19 Apr 05:01:12 05:04:54 30° 114° (ESE) 05:08:42 435.215
Gurwin Techsat 1B 19 Apr 05:16:08 05:17:56 11° 299° (WNW) 05:19:24 435.225
M-CUBED/EXP-1 PRIME 19 Apr 05:16:45 05:21:03 38° 66° (ENE) 05:25:33 437.505
HORYU 2 19 Apr 05:17:10 05:21:16 33° 289° (WNW) 05:25:15 437.375
AO-7 19 Apr 05:26:52 05:35:13 82° 289° (WNW) 05:43:33 29.400- 29.500
CUBESAT XI-V 19 Apr 05:30:48 05:34:04 20° 68° (ENE) 05:37:27 437.345
JUGNU 19 Apr 05:36:35 05:37:30 10° 176° (S) 05:38:27 437.505
GONETS M04 19 Apr 05:43:45 05:52:10 48° 270° (W) 06:00:25
JAS-2 19 Apr 05:48:19 05:54:45 46° 291° (WNW) 06:00:24 435.910
Cubesat XI-IV 19 Apr 05:51:52 05:53:44 12° 88° (E) 05:55:57 437.490
MOZHAYETS 4 19 Apr 05:52:26 05:55:52 20° 268° (W) 05:59:12
STRAND 1 19 Apr 05:52:31 05:55:58 19° 65° (ENE) 05:59:35 437.568
Cosmos 2499 19 Apr 05:53:12 06:00:25 36° 71° (ENE) 06:07:15 435.465 / 435.565
PRISM 19 Apr 06:01:57 06:05:24 26° 70° (ENE) 06:08:56 437.425
AUBIESAT-1 19 Apr 06:05:43 06:10:23 77° 253° (WSW) 06:15:13 437.475
BEESAT 2 19 Apr 06:26:44 06:29:00 14° 318° (NW) 06:31:09 435.950
DANDE 19 Apr 06:33:18 06:39:37 39° 266° (W) 06:46:58 436.750
BEESAT 3 19 Apr 06:36:54 06:37:27 10° 321° (NW) 06:37:50 437.485
AIST 2 19 Apr 06:39:52 06:43:31 26° 311° (NW) 06:47:09 435.215
CUSAT 1 19 Apr 06:43:01 06:48:55 27° 269° (W) 06:55:18 437.405
M-CUBED/EXP-1 PRIME 19 Apr 06:52:14 06:56:01 23° 263° (W) 06:59:48 437.505
CUBESAT XI-V 19 Apr 07:06:52 07:11:16 40° 263° (W) 07:15:38 437.345
SRMSAT 19 Apr 07:19:54 07:21:09 11° 177° (S) 07:22:26 437.500
AO-7 19 Apr 07:21:34 07:26:58 19° 307° (NW) 07:31:59 29.400- 29.500
CUTE-I 19 Apr 07:21:50 07:27:10 89° 297° (WNW) 07:32:30 437.470
Cubesat XI-IV 19 Apr 07:29:13 07:34:32 76° 285° (WNW) 07:39:51 437.490
STRAND 1 19 Apr 07:29:52 07:34:50 51° 260° (W) 07:39:49 437.568
PRISM 19 Apr 07:37:23 07:40:51 24° 265° (W) 07:44:14 437.425
Cosmos 2499 19 Apr 07:46:18 07:53:41 41° 272° (W) 08:00:27 435.465 / 435.565
BRITE-PL 19 Apr 08:24:06 08:28:15 28° 95° (E) 08:32:45 437.365/2234.400
DOVE 4 19 Apr 08:25:16 08:27:09 12° 89° (E) 08:29:23 437.250
O/OREOS (USA 219) 19 Apr 08:32:29 08:34:34 13° 52° (NE) 08:36:52 437.305
CANX-2 19 Apr 08:37:22 08:40:04 17° 91° (E) 08:42:54 2200.000
SEEDS 19 Apr 08:41:54 08:43:58 14° 90° (E) 08:46:15 437.485
CUTE 1.7 + AOD 2 19 Apr 08:47:21 08:50:26 20° 92° (E) 08:53:36 437.475
GOMX 1 19 Apr 08:49:01 08:53:26 33° 96° (E) 08:58:10 467.674
CUTE-I 19 Apr 09:04:44 09:06:35 11° 299° (WNW) 09:08:07 437.470
HO-68 19 Apr 09:12:36 09:19:28 47° 99° (E) 09:26:19 435.675
AAUSAT CUBESAT 2 19 Apr 09:15:44 09:19:04 23° 94° (E) 09:22:28 437.432
Cosmos 2491 19 Apr 09:22:47 09:29:01 22° 64° (ENE) 09:35:40 435.465 / 435.565
Oscar 11 19 Apr 09:28:07 09:30:32 15° 90° (E) 09:33:09 145.826/435.025
DELFI C3 19 Apr 09:39:14 09:41:15 14° 90° (E) 09:43:28 145.870
ANTELSAT 19 Apr 09:44:14 09:47:29 21° 67° (ENE) 09:50:55 437.575/2403.000
UWE-3 19 Apr 09:55:11 09:58:48 23° 93° (E) 10:02:32 435.000/436.395/437.385
DOVE 4 19 Apr 10:00:28 10:05:24 72° 284° (WNW) 10:10:35 437.250
CINEMA 3 19 Apr 10:01:15 10:06:06 62° 100° (E) 10:11:05 145.822/145.860
COMPASS 1 19 Apr 10:01:48 10:06:03 84° 283° (WNW) 10:10:15 437.405
BRITE-PL 19 Apr 10:02:28 10:06:46 32° 288° (WNW) 10:11:19 437.365/2234.400
PCSat 19 Apr 10:04:25 10:09:49 82° 117° (ESE) 10:15:17 145.827
QB50P2 19 Apr 10:08:02 10:10:46 17° 68° (ENE) 10:13:39 145.880/145.840
O/OREOS (USA 219) 19 Apr 10:10:04 10:14:33 64° 251° (WSW) 10:18:56 437.305
CANX-2 19 Apr 10:12:11 10:16:13 38° 287° (WNW) 10:20:10 2200.000
SEEDS 19 Apr 10:16:00 10:20:06 46° 286° (WNW) 10:24:09 437.485
CUTE 1.7 + AOD 2 19 Apr 10:22:35 10:26:28 33° 288° (WNW) 10:30:16 437.475
FUNcube-1 19 Apr 10:23:52 10:28:04 35° 96° (E) 10:32:18 145.935
GOMX 1 19 Apr 10:27:17 10:31:29 28° 290° (WNW) 10:35:50 467.674
POPSAT HIP 1 19 Apr 10:30:11 10:33:48 29° 71° (ENE) 10:37:30 437.405
NANOSAT C BR1 19 Apr 10:30:21 10:33:58 29° 71° (ENE) 10:37:39 145.865
YUBILEINY 19 Apr 10:30:38 10:37:11 25° 83° (E) 10:44:05 435.215
TIGRISAT 19 Apr 10:36:50 10:41:14 74° 75° (ENE) 10:45:46 435.000
UNISAT 6 19 Apr 10:37:45 10:42:10 78° 76° (ENE) 10:46:44 437.425
UKube-1 19 Apr 10:41:33 10:45:22 30° 97° (E) 10:49:13 .
AISAT 19 Apr 10:42:20 10:44:54 16° 91° (E) 10:47:39 437.250
ZACube-1 19 Apr 10:45:59 10:50:34 63° 100° (E) 10:55:08 437.345
CUBEBUG 2 19 Apr 10:49:15 10:54:01 79° 284° (WNW) 10:58:48 437.445
AAUSAT CUBESAT 2 19 Apr 10:51:07 10:54:42 27° 289° (WNW) 10:58:11 437.432
50 SAT 19 Apr 10:55:21 10:58:28 22° 94° (E) 11:01:40 437.505
POLYITAN 1 19 Apr 10:55:55 11:00:03 60° 75° (ENE) 11:04:14 437.675
ESTCUBE 1 19 Apr 10:57:08 10:58:25 11° 88° (E) 11:00:00 437.505/2401.250
HO-68 19 Apr 11:00:41 11:07:01 33° 296° (WNW) 11:13:10 435.675
Oscar 11 19 Apr 11:02:51 11:07:01 44° 287° (WNW) 11:11:08 145.826/435.025
DUCHIFAT 1 19 Apr 11:05:57 11:10:08 76° 76° (ENE) 11:14:20 145.980
DELFI C3 19 Apr 11:12:50 11:16:41 41° 287° (WNW) 11:20:28 145.870
Cosmos 2491 19 Apr 11:18:11 11:27:02 78° 265° (W) 11:35:50 435.465 / 435.565
QB50P1 19 Apr 11:18:42 11:22:53 74° 257° (WSW) 11:27:07 145.935-145.965
ANTELSAT 19 Apr 11:19:57 11:24:03 36° 263° (W) 11:28:14 437.575/2403.000
DX 1 19 Apr 11:23:50 11:28:13 81° 283° (WNW) 11:32:34 434.975-435.025
UWE-3 19 Apr 11:31:10 11:35:25 35° 289° (WNW) 11:39:38 435.000/436.395/437.385
BUGSAT 1 19 Apr 11:33:19 11:37:21 71° 258° (WSW) 11:41:22 437.445
HUMSAT D 19 Apr 11:39:42 11:44:02 67° 285° (WNW) 11:48:19 437.325/437.525
CINEMA 3 19 Apr 11:39:59 11:42:53 15° 294° (WNW) 11:45:36 145.822/145.860
QB50P2 19 Apr 11:42:30 11:46:25 37° 262° (W) 11:50:22 145.880/145.840
PCSat 19 Apr 11:50:33 11:54:00 16° 317° (NW) 11:57:18 145.827
FUNcube-1 19 Apr 12:00:38 12:04:13 22° 291° (WNW) 12:07:41 145.935
VELOX 1 19 Apr 12:02:27 12:06:52 69° 285° (WNW) 12:11:15 145.980
POPSAT HIP 1 19 Apr 12:06:28 12:09:45 21° 267° (W) 12:12:55 437.405
NANOSAT C BR1 19 Apr 12:06:36 12:09:52 21° 267° (W) 12:13:02 145.865
AISAT 19 Apr 12:17:32 12:21:47 45° 287° (WNW) 12:26:00 437.250
UKube-1 19 Apr 12:17:58 12:21:23 22° 291° (WNW) 12:24:41 .
AIST 1 19 Apr 12:17:59 12:21:43 30° 76° (ENE) 12:25:29
SO-50 19 Apr 12:20:05 12:22:43 16° 109° (ESE) 12:25:37 436.795
ZACube-1 19 Apr 12:24:13 12:26:28 13° 295° (WNW) 12:28:29 437.345
YUBILEINY 19 Apr 12:24:35 12:33:22 66° 281° (W) 12:42:10 435.215
CUBEBUG 1 19 Apr 12:28:55 12:33:16 73° 284° (WNW) 12:37:36 437.445
50 SAT 19 Apr 12:29:51 12:33:19 27° 289° (WNW) 12:36:42 437.505
ESTCUBE 1 19 Apr 12:31:21 12:35:48 62° 285° (WNW) 12:40:12 437.505/2401.250
POLYITAN 1 19 Apr 12:35:44 12:36:28 10° 272° (W) 12:36:56 437.675
TISAT 1 19 Apr 12:38:36 12:42:14 28° 96° (E) 12:45:56 437.305
SPROUT 19 Apr 12:41:34 12:45:36 39° 98° (E) 12:49:40 437.525
Oscar 19 19 Apr 13:06:45 13:11:39 48° 72° (ENE) 13:16:38 437.125/150
BEESAT 2 19 Apr 13:07:02 13:10:41 30° 51° (NE) 13:14:19 435.950
SWISSCUBE 19 Apr 13:12:00 13:12:55 11° 88° (E) 13:14:10 437.505
BEESAT 3 19 Apr 13:14:41 13:18:35 41° 54° (NE) 13:22:27 437.485
Gurwin Techsat 1B 19 Apr 13:15:58 13:19:05 17° 64° (ENE) 13:22:25 435.225
Cosmos 2491 19 Apr 13:18:32 13:22:38 13° 282° (WNW) 13:26:03 435.465 / 435.565
AIST 2 19 Apr 13:24:24 13:27:12 17° 44° (NE) 13:30:05 435.215
ITAMSAT 1 19 Apr 13:26:41 13:30:42 24° 67° (ENE) 13:34:50 435.822/435.867
Cosmos 2504 19 Apr 13:44:29 13:52:33 44° 88° (E) 14:00:50 435.465 / 435.565
AIST 1 19 Apr 13:56:05 13:59:13 19° 271° (W) 14:02:12
SO-50 19 Apr 13:58:15 14:02:49 56° 305° (NW) 14:07:34 436.795
ITUPSAT 1 19 Apr 14:10:03 14:14:34 42° 98° (E) 14:19:05 437.325
TISAT 1 19 Apr 14:14:32 14:17:56 23° 291° (WNW) 14:21:14 437.305
JAS-2 19 Apr 14:15:42 14:19:37 15° 57° (ENE) 14:23:56 435.910
SPROUT 19 Apr 14:18:28 14:21:27 18° 292° (WNW) 14:24:16 437.525
YUBILEINY 19 Apr 14:28:58 14:32:24 12° 304° (NW) 14:35:08 435.215
ISS 19 Apr 14:33:54 14:37:09 79° 141° (SE) 14:40:26 145.825
AO-7 19 Apr 14:33:59 14:40:25 27° 58° (ENE) 14:47:06 29.400- 29.500
HORYU 2 19 Apr 14:38:54 14:41:54 19° 67° (ENE) 14:45:05 437.375
BEESAT 19 Apr 14:45:19 14:50:07 81° 284° (WNW) 14:54:51 436.000
BEESAT 2 19 Apr 14:45:20 14:48:42 24° 247° (WSW) 14:51:56 435.950
SWISSCUBE 19 Apr 14:46:39 14:51:25 72° 284° (WNW) 14:56:08 437.505
Oscar 19 19 Apr 14:47:40 14:51:20 19° 269° (W) 14:54:50 437.125/150
Gurwin Techsat 1B 19 Apr 14:53:19 14:58:35 64° 259° (WSW) 15:03:53 435.225
BEESAT 3 19 Apr 14:53:40 14:56:19 16° 249° (WSW) 14:58:47 437.485
RS-15 19 Apr 14:54:03 15:03:59 45° 110° (ESE) 15:14:14 29.354- 29.394
KKS-1 19 Apr 14:57:56 15:01:34 24° 95° (E) 15:05:15 437.445
AIST 2 19 Apr 15:02:00 15:06:08 51° 243° (WSW) 15:10:09 435.215
ITAMSAT 1 19 Apr 15:05:07 15:10:00 40° 262° (W) 15:14:52 435.822/435.867
Cosmos 2504 19 Apr 15:37:46 15:46:02 41° 287° (WNW) 15:54:14 435.465 / 435.565
ITUPSAT 1 19 Apr 15:48:42 15:52:12 20° 294° (WNW) 15:55:33 437.325
JAS-2 19 Apr 15:55:49 16:03:32 73° 74° (ENE) 16:11:21 435.910
STARS 19 Apr 16:08:54 16:13:22 86° 283° (WNW) 16:17:50 437.465
ISS 19 Apr 16:11:33 16:13:53 18° 338° (NNW) 16:16:10 145.825
HORYU 2 19 Apr 16:14:04 16:18:18 40° 262° (W) 16:22:33 437.375
AO-7 19 Apr 16:24:23 16:32:38 69° 256° (WSW) 16:40:55 29.400- 29.500
KKS-1 19 Apr 16:34:18 16:38:13 29° 290° (WNW) 16:42:03 437.445
GONETS M04 19 Apr 16:46:43 16:54:40 42° 88° (E) 17:02:48
CUTE-I 19 Apr 17:05:07 17:08:22 17° 64° (ENE) 17:11:50 437.470
RS-15 19 Apr 17:05:39 17:16:15 52° 312° (NW) 17:27:03 29.354- 29.394
Cubesat XI-IV 19 Apr 17:12:05 17:15:48 20° 65° (ENE) 17:19:40 437.490
JAS-2 19 Apr 17:43:12 17:49:14 23° 272° (W) 17:55:00 435.910
MOZHAYETS 4 19 Apr 17:47:13 17:51:50 75° 284° (WNW) 17:56:24
DANDE 19 Apr 18:04:35 18:06:59 25° 90° (E) 18:09:51 436.750
CUSAT 1 19 Apr 18:09:17 18:12:11 50° 95° (E) 18:15:52 437.405
AO-7 19 Apr 18:24:59 18:27:10 11° 275° (W) 18:28:31 29.400- 29.500
Cosmos 2499 19 Apr 18:27:16 18:34:42 33° 86° (E) 18:42:20 435.465 / 435.565
M-CUBED/EXP-1 PRIME 19 Apr 18:34:54 18:38:50 32° 100° (E) 18:42:32 437.505
VERMONT LUNAR 19 Apr 18:41:55 18:44:11 17° 148° (SSE) 18:46:31 437.305
CUTE-I 19 Apr 18:42:43 18:48:00 61° 259° (WSW) 18:53:18 437.470
GONETS M04 19 Apr 18:43:25 18:51:34 41° 288° (WNW) 18:59:41
Cubesat XI-IV 19 Apr 18:50:21 18:55:33 51° 260° (W) 19:00:46 437.490
PCSat 19 Apr 18:53:33 18:58:50 51° 57° (ENE) 19:04:06 145.827
CUBESAT XI-V 19 Apr 19:04:24 19:08:55 54° 99° (E) 19:13:26 437.345
PRISM 19 Apr 19:20:11 19:24:10 48° 99° (E) 19:28:08 437.425
AUBIESAT-1 19 Apr 19:23:25 19:27:49 78° 289° (WNW) 19:31:49 437.475
RS-15 19 Apr 19:24:26 19:32:13 20° 343° (NNW) 19:39:58 29.354- 29.394
ISS 19 Apr 19:26:54 19:28:47 14° 18° (NNE) 19:30:43 145.825
CANX-2 19 Apr 19:30:59 19:32:17 11° 65° (ENE) 19:33:50 2200.000
BRITE-PL 19 Apr 19:35:16 19:38:30 23° 70° (ENE) 19:41:50 437.365/2234.400
HO-68 19 Apr 19:40:24 19:46:29 32° 63° (ENE) 19:52:43 435.675
PHONESAT 2.4 19 Apr 19:40:26 19:42:57 18° 148° (SSE) 19:45:32 2401.200-2431.200
CUTE 1.7 + AOD 2 19 Apr 19:40:28 19:42:26 13° 66° (ENE) 19:44:38 437.475
STRAND 1 19 Apr 19:41:22 19:46:23 59° 100° (E) 19:51:25 437.568
GOMX 1 19 Apr 19:57:19 20:00:43 25° 70° (ENE) 20:04:15 467.674
AAUSAT CUBESAT 2 19 Apr 20:06:37 20:08:57 15° 67° (ENE) 20:11:27 437.432
M-CUBED/EXP-1 PRIME 19 Apr 20:10:03 20:13:32 22° 298° (WNW) 20:16:43 437.505
VERMONT LUNAR 19 Apr 20:18:01 20:21:24 68° 161° (SSE) 20:24:46 437.305
Cosmos 2499 19 Apr 20:18:54 20:27:33 54° 284° (WNW) 20:36:07 435.465 / 435.565
Oscar 11 19 Apr 20:23:32 20:24:41 11° 65° (ENE) 20:26:05 145.826/435.025
PCSat 19 Apr 20:37:53 20:41:55 21° 253° (WSW) 20:45:46 145.827
CUBESAT XI-V 19 Apr 20:43:19 20:45:58 15° 294° (WNW) 20:48:26 437.345
YUBILEINY 19 Apr 20:45:03 20:45:36 10° 54° (NE) 20:46:57 435.215
SO-50 19 Apr 20:51:32 20:54:23 15° 40° (NE) 20:57:22 436.795
COMPASS 1 19 Apr 20:51:44 20:55:52 55° 75° (ENE) 21:00:03 437.405
UWE-3 19 Apr 20:52:30 20:54:57 16° 66° (ENE) 20:57:38 435.000/436.395/437.385
PRISM 19 Apr 20:57:12 20:59:17 13° 294° (WNW) 21:01:11 437.425
CINEMA 3 19 Apr 21:02:23 21:06:24 45° 73° (ENE) 21:10:36 145.822/145.860
ISS 19 Apr 21:02:26 21:05:40 67° 36° (NE) 21:08:54 145.825
CANX-2 19 Apr 21:03:29 21:07:44 63° 259° (W) 21:12:03 2200.000
DOVE 4 19 Apr 21:05:35 21:09:43 79° 259° (WSW) 21:14:01 437.250
SEEDS 19 Apr 21:06:28 21:10:44 79° 258° (WSW) 21:15:02 437.485
BRITE-PL 19 Apr 21:13:33 21:17:01 25° 265° (W) 21:20:26 437.365/2234.400
CUTE 1.7 + AOD 2 19 Apr 21:13:46 21:17:57 53° 260° (W) 21:22:11 437.475
PHONESAT 2.4 19 Apr 21:17:19 21:20:53 70° 163° (SSE) 21:24:28 2401.200-2431.200
FUNcube-1 19 Apr 21:19:11 21:22:33 23° 69° (ENE) 21:26:03 145.935
STRAND 1 19 Apr 21:21:58 21:25:10 16° 296° (WNW) 21:28:10 437.568
HO-68 19 Apr 21:27:04 21:33:59 49° 260° (W) 21:40:55 435.675
GOMX 1 19 Apr 21:35:33 21:38:53 23° 267° (W) 21:42:12 467.674
UKube-1 19 Apr 21:35:47 21:39:10 23° 69° (ENE) 21:42:39 .
AAUSAT CUBESAT 2 19 Apr 21:40:11 21:44:14 45° 261° (W) 21:48:19 437.432
AISAT 19 Apr 21:40:16 21:42:12 13° 65° (ENE) 21:44:22 437.250
ZACube-1 19 Apr 21:41:03 21:45:02 41° 73° (ENE) 21:49:11 437.345
50 SAT 19 Apr 21:41:41 21:43:02 12° 66° (ENE) 21:44:37 437.505
RS-15 19 Apr 21:42:32 21:50:24 21° 18° (NNE) 21:58:45 29.354- 29.394
CUBEBUG 2 19 Apr 21:46:27 21:50:41 75° 76° (ENE) 21:55:06 437.445
VERMONT LUNAR 19 Apr 21:55:36 21:58:59 66° 359° (N) 22:02:21 437.305
Oscar 11 19 Apr 21:56:02 22:00:22 67° 259° (W) 22:04:43 145.826/435.025
ESTCUBE 1 19 Apr 21:57:12 21:57:48 10° 63° (ENE) 21:58:41 437.505/2401.250
DELFI C3 19 Apr 21:58:46 22:02:51 82° 256° (WSW) 22:06:59 145.870
DX 1 19 Apr 22:18:09 22:22:28 75° 75° (ENE) 22:26:48 434.975-435.025
Cosmos 2491 19 Apr 22:23:28 22:29:56 25° 83° (E) 22:36:46 435.465 / 435.565
UWE-3 19 Apr 22:27:03 22:31:08 45° 262° (W) 22:35:21 435.000/436.395/437.385
HUMSAT D 19 Apr 22:30:12 22:34:22 73° 75° (ENE) 22:38:36 437.325/437.525
COMPASS 1 19 Apr 22:30:29 22:32:00 11° 272° (W) 22:33:15 437.405
SO-50 19 Apr 22:30:41 22:35:40 87° 239° (WSW) 22:40:34 436.795
TIGRISAT 19 Apr 22:30:45 22:33:52 18° 91° (E) 22:37:09 435.000
UNISAT 6 19 Apr 22:31:49 22:35:06 19° 92° (E) 22:38:31 437.425
YUBILEINY 19 Apr 22:36:15 22:44:54 60° 78° (ENE) 22:53:29 435.215
ISS 19 Apr 22:40:27 22:41:41 12° 231° (SW) 22:42:47 145.825
CINEMA 3 19 Apr 22:41:40 22:43:59 14° 271° (W) 22:46:09 145.822/145.860
O/OREOS (USA 219) 19 Apr 22:43:30 22:46:21 17° 101° (ESE) 22:49:23 437.305
POLYITAN 1 19 Apr 22:45:02 22:46:06 11° 89° (E) 22:47:27 437.675
DUCHIFAT 1 19 Apr 22:53:35 22:55:36 13° 90° (E) 22:57:50 145.980
FUNcube-1 19 Apr 22:55:05 22:58:47 28° 265° (W) 23:02:31 145.935
PHONESAT 2.4 19 Apr 22:55:39 22:59:13 68° 359° (N) 23:02:47 2401.200-2431.200
VELOX 1 19 Apr 22:58:46 23:03:11 89° 268° (W) 23:07:37 145.980
QB50P1 19 Apr 23:05:50 23:08:53 19° 93° (E) 23:12:04 145.935-145.965
UKube-1 19 Apr 23:11:27 23:15:13 28° 264° (W) 23:18:57 .
ANTELSAT 19 Apr 23:12:37 23:17:14 52° 99° (E) 23:21:49 437.575/2403.000
50 SAT 19 Apr 23:13:35 23:17:28 52° 260° (W) 23:21:24 437.505
AISAT 19 Apr 23:14:03 23:18:23 57° 260° (W) 23:22:44 437.250
BUGSAT 1 19 Apr 23:17:35 23:20:18 17° 93° (E) 23:23:09 437.445
ZACube-1 19 Apr 23:19:00 23:21:41 16° 270° (W) 23:24:14 437.345
CUBEBUG 1 19 Apr 23:23:45 23:28:06 80° 74° (ENE) 23:32:27 437.445
QB50P2 19 Apr 23:28:47 23:32:45 36° 97° (E) 23:36:44 145.880/145.840
ESTCUBE 1 19 Apr 23:29:35 23:34:07 78° 257° (WSW) 23:38:39 437.505/2401.250
TISAT 1 19 Apr 23:30:33 23:33:26 19° 68° (ENE) 23:36:27 437.305
VERMONT LUNAR 19 Apr 23:33:13 23:36:36 77° 194° (SSW) 23:39:57 437.305
SPROUT 19 Apr 23:35:03 23:38:35 26° 70° (ENE) 23:42:12 437.525
Cosmos 2504 19 Apr 23:41:33 23:44:42 13° 57° (ENE) 23:48:22 435.465 / 435.565
NANOSAT C BR1 19 Apr 23:51:27 23:55:42 65° 101° (E) 23:59:57 145.865
POPSAT HIP 1 19 Apr 23:51:33 23:55:50 66° 101° (E) 00:00:06 437.405
RS-15 19 Apr 23:55:15 00:06:25 53° 48° (NE) 00:18:08 29.354- 29.394
TIGRISAT 20 Apr 00:06:22 00:10:52 44° 288° (WNW) 00:15:18 435.000
UNISAT 6 20 Apr 00:07:38 00:12:06 41° 288° (WNW) 00:16:29 437.425
BEESAT 20 Apr 00:16:48 00:18:03 11° 63° (ENE) 00:19:35 436.000
SWISSCUBE 20 Apr 00:17:30 00:19:23 13° 63° (ENE) 00:21:31 437.505
Cosmos 2491 20 Apr 00:17:31 00:26:10 65° 281° (W) 00:34:53 435.465 / 435.565
POLYITAN 1 20 Apr 00:18:14 00:22:29 59° 285° (WNW) 00:26:44 437.675
O/OREOS (USA 219) 20 Apr 00:21:05 00:25:29 43° 296° (WNW) 00:29:52 437.305
DUCHIFAT 1 20 Apr 00:27:38 00:31:45 48° 286° (WNW) 00:35:52 145.980
PHONESAT 2.4 20 Apr 00:34:00 00:37:34 76° 196° (SSW) 00:41:07 2401.200-2431.200
YUBILEINY 20 Apr 00:34:04 00:41:13 28° 276° (W) 00:48:01 435.215
QB50P1 20 Apr 00:41:00 00:44:52 33° 288° (WNW) 00:48:42 145.935-145.965
AIST 1 20 Apr 00:47:02 00:50:05 19° 89° (E) 00:53:14
ANTELSAT 20 Apr 00:50:37 00:53:38 17° 294° (WNW) 00:56:28 437.575/2403.000
BUGSAT 1 20 Apr 00:52:10 00:55:55 34° 288° (WNW) 00:59:40 437.445
TISAT 1 20 Apr 01:05:12 01:09:01 34° 263° (W) 01:12:50 437.305
QB50P2 20 Apr 01:05:22 01:08:26 19° 292° (WNW) 01:11:22 145.880/145.840
SPROUT 20 Apr 01:11:07 01:14:39 24° 266° (W) 01:18:07 437.525
VERMONT LUNAR 20 Apr 01:11:17 01:13:51 20° 210° (SSW) 01:16:20 437.305
ITUPSAT 1 20 Apr 01:15:44 01:20:15 43° 72° (ENE) 01:24:49 437.325
Oscar 19 20 Apr 01:20:22 01:23:54 19° 91° (E) 01:27:36 437.125/150
NANOSAT C BR1 20 Apr 01:29:43 01:31:04 11° 295° (WNW) 01:32:12 145.865
POPSAT HIP 1 20 Apr 01:29:53 01:31:14 11° 295° (WNW) 01:32:22 437.405
Cosmos 2504 20 Apr 01:31:49 01:40:05 74° 81° (E) 01:47:41 435.465 / 435.565
BEESAT 20 Apr 01:50:31 01:55:19 81° 258° (WSW) 02:00:08 436.000
SWISSCUBE 20 Apr 01:51:56 01:56:43 72° 259° (WSW) 02:01:32 437.505
KKS-1 20 Apr 01:55:37 01:58:48 20° 68° (ENE) 02:02:06 437.445
PHONESAT 2.4 20 Apr 02:12:48 02:15:31 20° 211° (SSW) 02:18:12 2401.200-2431.200
